OK,51,71,742,51,2014-10-01T01:40:00,0,28072069,195015
OK,51,71,742,51,2014-10-01T01:45:00,0,28072512,195015
OK,51,71,742,51,2014-10-01T01:50:00,0,28072961,195015
OK,51,71,742,51,2014-10-01T01:55:00,0,28073408,195015
OK,51,71,742,51,2014-10-01T02:05:00,0,28074174,195015
OK,51,71,742,51,2014-10-01T02:10:00,0,28074623,195015
OK,51,71,742,51,2014-10-01T02:15:00,0,28075063,195015
OK,51,71,742,51,2014-10-01T02:20:00,0,28075512,195015
OK,51,71,742,51,2014-10-01T02:25:00,0,28075961,195015
OK,51,71,742,51,2014-10-01T02:30:00,0,28076344,195015
OK,51,71,742,51,2014-10-01T02:35:00,0,28076793,195015
OK,51,71,742,51,2014-10-01T02:40:00,0,28077242,195015
OK,51,71,742,51,2014-10-01T02:45:00,0,28077691,195015
OK,51,71,742,51,2014-10-01T02:50:00,0,28078094,195015
OK,51,71,742,51,2014-10-01T02:55:00,0,28078543,195015
OK,72,50,742,72,2014-10-01T03:00:00,2,28078988,195015
OK,80,45,742,80,2014-10-01T03:05:00,2,28079436,195015
OK,80,45,742,80,2014-10-01T03:10:00,0,28079879,195015
OK,73,50,742,73,2014-10-01T03:20:00,2,28080662,195015
OK,75,48,742,75,2014-10-01T03:25:00,4,28081111,195015
OK,79,46,742,79,2014-10-01T03:30:00,2,28081559,195015
OK,77,47,742,77,2014-10-01T03:35:00,0,28082007,195015
OK,77,47,742,77,2014-10-01T03:40:00,0,28082456,195015
OK,77,47,742,77,2014-10-01T03:45:00,0,28082889,195015
OK,77,47,742,77,2014-10-01T03:50:00,0,28083321,195015
OK,77,47,742,77,2014-10-01T03:55:00,0,28083770,195015
OK,60,61,742,60,2014-10-01T04:00:00,1,28084219,195015
OK,60,61,742,60,2014-10-01T04:05:00,1,28084660,195015
OK,60,61,742,60,2014-10-01T04:10:00,0,28085085,195015
OK,62,59,742,62,2014-10-01T04:15:00,1,28085534,195015
OK,62,59,742,62,2014-10-01T04:20:00,0,28085979,195015
OK,81,45,742,81,2014-10-01T04:25:00,2,28086428,195015
OK,70,52,742,70,2014-10-01T04:30:00,5,28086870,195015
OK,70,52,742,70,2014-10-01T04:35:00,1,28087319,195015
OK,72,50,742,72,2014-10-01T04:40:00,5,28087764,195015
OK,69,53,742,69,2014-10-01T04:45:00,9,28088213,195015
OK,71,51,742,71,2014-10-01T04:50:00,7,28088637,195015
OK,71,51,742,71,2014-10-01T04:55:00,7,28089086,195015
OK,78,46,742,78,2014-10-01T05:00:00,5,28089516,195015
OK,69,53,742,69,2014-10-01T05:05:00,2,28089965,195015
OK,65,56,742,65,2014-10-01T05:10:00,4,28090414,195015
OK,72,50,742,72,2014-10-01T05:15:00,4,28090758,195015
OK,71,51,742,71,2014-10-01T05:20:00,4,28091207,195015
OK,72,50,742,72,2014-10-01T05:25:00,5,28091656,195015
OK,73,50,742,73,2014-10-01T05:30:00,6,28092073,195015
OK,73,50,742,73,2014-10-01T05:35:00,7,28092522,195015
OK,77,47,742,77,2014-10-01T05:40:00,9,28092966,195015
OK,73,50,742,73,2014-10-01T05:45:00,8,28093407,195015
OK,71,51,742,71,2014-10-01T05:50:00,4,28093838,195015
OK,74,49,742,74,2014-10-01T05:55:00,6,28094286,195015
OK,77,47,742,77,2014-10-01T06:00:00,8,28094698,195015
OK,81,45,742,81,2014-10-01T06:05:00,9,28095143,195015
OK,82,44,742,82,2014-10-01T06:10:00,6,28095590,195015
OK,70,52,742,70,2014-10-01T06:15:00,5,28096039,195015
OK,72,50,742,72,2014-10-01T06:20:00,5,28096452,195015
OK,75,48,742,75,2014-10-01T06:25:00,4,28096901,195015
OK,76,48,742,76,2014-10-01T06:30:00,8,28097335,195015
OK,73,50,742,73,2014-10-01T06:35:00,6,28097784,195015
OK,79,46,742,79,2014-10-01T06:40:00,2,28098233,195015
OK,73,50,742,73,2014-10-01T06:45:00,3,28098670,195015
OK,74,49,742,74,2014-10-01T06:50:00,2,28099114,195015
OK,66,55,742,66,2014-10-01T07:00:00,3,28099905,195015
OK,89,41,742,89,2014-10-01T07:10:00,2,28100661,195015
OK,76,48,742,76,2014-10-01T07:20:00,8,28101481,195015
OK,70,52,742,70,2014-10-01T07:25:00,7,28101930,195015
OK,72,50,742,72,2014-10-01T07:30:00,5,28102366,195015
OK,72,50,742,72,2014-10-01T07:35:00,1,28102815,195015
OK,84,43,742,84,2014-10-01T07:40:00,2,28103242,195015
OK,74,49,742,74,2014-10-01T07:45:00,4,28103689,195015
OK,70,52,742,70,2014-10-01T07:50:00,5,28104134,195015
OK,73,50,742,73,2014-10-01T07:55:00,3,28104579,195015
OK,69,53,742,69,2014-10-01T08:00:00,3,28105020,195015
OK,67,54,742,67,2014-10-01T08:05:00,3,28105465,195015
OK,66,55,742,66,2014-10-01T08:10:00,2,28105905,195015
OK,66,55,742,66,2014-10-01T08:15:00,1,28106354,195015
OK,71,51,742,71,2014-10-01T08:20:00,4,28106791,195015
OK,85,43,742,85,2014-10-01T08:30:00,3,28107629,195015
OK,68,53,742,68,2014-10-01T08:35:00,6,28108078,195015
OK,66,55,742,66,2014-10-01T08:40:00,8,28108517,195015
OK,73,50,742,73,2014-10-01T08:45:00,0,28108966,195015
OK,73,50,742,73,2014-10-01T08:50:00,4,28109394,195015
OK,76,48,742,76,2014-10-01T09:00:00,4,28110186,195015
OK,67,54,742,67,2014-10-01T09:05:00,5,28110635,195015
OK,67,54,742,67,2014-10-01T09:10:00,2,28111058,195015
OK,79,46,742,79,2014-10-01T09:15:00,3,28111507,195015
OK,75,48,742,75,2014-10-01T09:20:00,5,28111936,195015
OK,77,47,742,77,2014-10-01T09:30:00,2,28112726,195015
OK,80,45,742,80,2014-10-01T09:35:00,2,28113175,195015
OK,88,41,742,88,2014-10-01T09:40:00,1,28113599,195015
OK,65,56,742,65,2014-10-01T09:45:00,6,28114048,195015
OK,75,48,742,75,2014-10-01T09:50:00,3,28114480,195015
OK,77,47,742,77,2014-10-01T10:00:00,5,28115283,195015
OK,72,50,742,72,2014-10-01T10:05:00,6,28115732,195015
OK,69,53,742,69,2014-10-01T10:10:00,2,28116144,195015
OK,68,53,742,68,2014-10-01T10:15:00,6,28116593,195015
OK,68,53,742,68,2014-10-01T10:20:00,4,28117001,195015
OK,61,60,742,61,2014-10-01T10:25:00,1,28117450,195015
OK,61,60,742,61,2014-10-01T10:30:00,2,28117875,195015
OK,77,47,742,77,2014-10-01T10:35:00,5,28118324,195015
OK,77,47,742,77,2014-10-01T10:40:00,5,28118769,195015
OK,68,53,742,68,2014-10-01T10:45:00,5,28119216,195015
OK,68,53,742,68,2014-10-01T10:50:00,5,28119660,195015
OK,59,62,742,59,2014-10-01T10:55:00,3,28120108,195015
OK,64,57,742,64,2014-10-01T11:00:00,1,28120556,195015
OK,59,62,742,59,2014-10-01T11:10:00,1,28121388,195015
OK,67,54,742,67,2014-10-01T11:15:00,3,28121837,195015
OK,67,54,742,67,2014-10-01T11:20:00,4,28122275,195015
OK,69,53,742,69,2014-10-01T11:25:00,4,28122724,195015
OK,78,46,742,78,2014-10-01T11:30:00,9,28123165,195015
OK,75,48,742,75,2014-10-01T11:35:00,10,28123614,195015
OK,69,53,742,69,2014-10-01T11:40:00,6,28124046,195015
OK,73,50,742,73,2014-10-01T11:45:00,6,28124495,195015
OK,73,50,742,73,2014-10-01T11:50:00,4,28124897,195015
OK,73,50,742,73,2014-10-01T11:55:00,2,28125346,195015
OK,72,50,742,72,2014-10-01T12:00:00,4,28125775,195015
OK,71,51,742,71,2014-10-01T12:10:00,5,28126576,195015
OK,64,57,742,64,2014-10-01T12:15:00,2,28127025,195015
OK,68,53,742,68,2014-10-01T12:20:00,6,28127474,195015
OK,68,53,742,68,2014-10-01T12:25:00,6,28127923,195015
OK,76,48,742,76,2014-10-01T12:30:00,8,28128351,195015
OK,64,57,742,64,2014-10-01T12:35:00,4,28128800,195015
OK,64,57,742,64,2014-10-01T12:40:00,7,28129235,195015
OK,76,48,742,76,2014-10-01T12:45:00,8,28129684,195015
OK,73,50,742,73,2014-10-01T12:50:00,6,28130118,195015
OK,71,51,742,71,2014-10-01T12:55:00,4,28130567,195015
OK,73,50,742,73,2014-10-01T13:00:00,2,28130995,195015
OK,73,50,742,73,2014-10-01T13:05:00,4,28131444,195015
OK,71,51,742,71,2014-10-01T13:10:00,5,28131881,195015
OK,72,50,742,72,2014-10-01T13:15:00,7,28132330,195015
OK,69,53,742,69,2014-10-01T13:20:00,10,28132768,195015
OK,74,49,742,74,2014-10-01T13:25:00,6,28133215,195015
OK,79,46,742,79,2014-10-01T13:30:00,3,28133653,195015
OK,88,41,742,88,2014-10-01T13:35:00,4,28134102,195015
OK,82,44,742,82,2014-10-01T13:40:00,6,28134541,195015
OK,72,50,742,72,2014-10-01T13:50:00,5,28135409,195015
OK,73,50,742,73,2014-10-01T13:55:00,6,28135858,195015
OK,78,46,742,78,2014-10-01T14:00:00,6,28136295,195015
OK,79,46,742,79,2014-10-01T14:05:00,5,28136744,195015
OK,84,43,742,84,2014-10-01T14:10:00,5,28137184,195015
OK,84,43,742,84,2014-10-01T14:15:00,5,28137633,195015
OK,83,44,742,83,2014-10-01T14:20:00,8,28138067,195015
OK,75,48,742,75,2014-10-01T14:25:00,7,28138516,195015
OK,65,56,742,65,2014-10-01T14:30:00,4,28138944,195015
OK,85,43,742,85,2014-10-01T14:40:00,1,28139804,195015
OK,71,51,742,71,2014-10-01T14:45:00,6,28140253,195015
OK,72,50,742,72,2014-10-01T14:50:00,9,28140695,195015
OK,74,49,742,74,2014-10-01T14:55:00,3,28141143,195015
OK,77,47,742,77,2014-10-01T15:00:00,1,28141570,195015
OK,66,55,742,66,2014-10-01T15:05:00,4,28142019,195015
OK,71,51,742,71,2014-10-01T15:10:00,6,28142447,195015
OK,72,50,742,72,2014-10-01T15:15:00,7,28142896,195015
OK,70,52,742,70,2014-10-01T15:20:00,5,28143323,195015
OK,68,53,742,68,2014-10-01T15:25:00,2,28143772,195015
OK,69,53,742,69,2014-10-01T15:30:00,3,28144220,195015
OK,76,48,742,76,2014-10-01T15:35:00,3,28144669,195015
OK,60,61,742,60,2014-10-01T15:45:00,4,28145504,195015
OK,79,46,742,79,2014-10-01T15:50:00,0,28145953,195015
OK,71,51,742,71,2014-10-01T15:55:00,2,28146402,195015
OK,59,62,742,59,2014-10-01T16:00:00,3,28146851,195015
OK,57,64,742,57,2014-10-01T16:05:00,1,28147259,195015
OK,66,55,742,66,2014-10-01T16:10:00,1,28147703,195015
OK,59,62,742,59,2014-10-01T16:20:00,1,28148553,195015
OK,60,61,742,60,2014-10-01T16:25:00,3,28149002,195015
OK,72,50,742,72,2014-10-01T16:30:00,1,28149441,195015
OK,72,50,742,72,2014-10-01T16:35:00,0,28149890,195015
OK,69,53,742,69,2014-10-01T16:40:00,2,28150316,195015
OK,67,54,742,67,2014-10-01T16:45:00,0,28150765,195015
OK,67,54,742,67,2014-10-01T16:50:00,0,28151183,195015
OK,67,54,742,67,2014-10-01T16:55:00,0,28151632,195015
OK,65,56,742,65,2014-10-01T17:05:00,0,28152081,195015
OK,70,52,742,70,2014-10-01T17:10:00,1,28152530,195015
OK,70,52,742,70,2014-10-01T17:15:00,0,28152976,195015
OK,81,45,742,81,2014-10-01T17:20:00,1,28153423,195015
OK,64,57,742,64,2014-10-01T17:25:00,5,28153872,195015
OK,64,57,742,64,2014-10-01T17:30:00,5,28154282,195015
OK,63,58,742,63,2014-10-01T17:35:00,1,28154731,195015
OK,62,59,742,62,2014-10-01T17:40:00,2,28155173,195015
OK,62,59,742,62,2014-10-01T17:45:00,1,28155621,195015
OK,73,50,742,73,2014-10-01T17:50:00,2,28156039,195015
OK,73,50,742,73,2014-10-01T17:55:00,0,28156488,195015
OK,78,46,742,78,2014-10-01T18:00:00,1,28156936,195015
OK,81,45,742,81,2014-10-01T18:05:00,2,28157375,195015
OK,84,43,742,84,2014-10-01T18:10:00,0,28157804,195015
OK,72,50,742,72,2014-10-01T18:15:00,0,28158253,195015
OK,72,50,742,72,2014-10-01T18:20:00,0,28158697,195015
OK,59,62,742,59,2014-10-01T18:25:00,1,28159142,195015
OK,69,53,742,69,2014-10-01T18:35:00,1,28159924,195015
OK,69,53,742,69,2014-10-01T18:40:00,0,28160373,195015
OK,62,59,742,62,2014-10-01T18:45:00,1,28160822,195015
OK,62,59,742,62,2014-10-01T18:50:00,1,28161260,195015
OK,62,59,742,62,2014-10-01T18:55:00,0,28161709,195015
OK,73,50,742,73,2014-10-01T19:00:00,2,28162126,195015
OK,72,50,742,72,2014-10-01T19:05:00,2,28162575,195015
OK,68,53,742,68,2014-10-01T19:10:00,0,28162969,195015
OK,68,53,742,68,2014-10-01T19:15:00,0,28163408,195015
OK,68,53,742,68,2014-10-01T19:20:00,0,28163856,195015
OK,68,53,742,68,2014-10-01T19:25:00,0,28164305,195015
OK,68,53,742,68,2014-10-01T19:30:00,0,28164736,195015
OK,78,46,742,78,2014-10-01T19:35:00,1,28165185,195015
OK,78,46,742,78,2014-10-01T19:40:00,0,28165610,195015
OK,78,46,742,78,2014-10-01T19:45:00,0,28166058,195015
OK,74,49,742,74,2014-10-01T19:55:00,1,28166861,195015
OK,55,66,742,55,2014-10-01T20:00:00,1,28167732,195015
OK,55,66,742,55,2014-10-01T20:05:00,0,28168172,195015
OK,55,66,742,55,2014-10-01T20:10:00,0,28168620,195015
OK,60,61,742,60,2014-10-01T20:15:00,2,28169066,195015
OK,63,58,742,63,2014-10-01T20:25:00,1,28169515,195015
OK,56,65,742,56,2014-10-01T20:35:00,1,28170387,195015
OK,63,58,742,63,2014-10-01T20:40:00,2,28170834,195015
OK,70,52,742,70,2014-10-01T20:45:00,1,28171719,195015
OK,71,51,742,71,2014-10-01T20:50:00,4,28172164,195015
OK,72,50,742,72,2014-10-01T20:55:00,3,28172612,195015
OK,81,45,742,81,2014-10-01T21:00:00,0,28173056,195015
OK,81,45,742,81,2014-10-01T21:10:00,1,28173505,195015
OK,87,42,742,87,2014-10-01T21:20:00,1,28174395,195015
OK,80,45,742,80,2014-10-01T21:25:00,1,28175217,195015
OK,77,47,742,77,2014-10-01T21:30:00,2,28175666,195015
OK,74,49,742,74,2014-10-01T21:35:00,0,28176115,195015
OK,74,49,742,74,2014-10-01T21:45:00,0,28176564,195015
OK,74,49,742,74,2014-10-01T21:50:00,0,28177362,195015
OK,74,49,742,74,2014-10-01T21:55:00,0,28177806,195015
OK,74,49,742,74,2014-10-01T22:05:00,0,28178255,195015
OK,74,49,742,74,2014-10-01T22:10:00,0,28178704,195015
OK,74,49,742,74,2014-10-01T22:15:00,0,28179151,195015
OK,74,49,742,74,2014-10-01T22:20:00,0,28179585,195015
OK,77,47,742,77,2014-10-01T22:25:00,1,28180028,195015
OK,77,47,742,77,2014-10-01T22:30:00,0,28180873,195015
OK,77,47,742,77,2014-10-01T22:35:00,0,28181298,195015
OK,77,47,742,77,2014-10-01T22:40:00,0,28181745,195015
OK,77,47,742,77,2014-10-01T22:45:00,0,28182192,195015
OK,77,47,742,77,2014-10-01T22:55:00,0,28182641,195015
OK,77,47,742,77,2014-10-01T23:00:00,0,28183491,195015
OK,77,47,742,77,2014-10-01T23:05:00,0,28183936,195015
OK,77,47,742,77,2014-10-01T23:10:00,0,28184385,195015
OK,77,47,742,77,2014-10-01T23:15:00,0,28184820,195015
OK,77,47,742,77,2014-10-01T23:20:00,0,28185268,195015
OK,77,47,742,77,2014-10-01T23:25:00,0,28185699,195015
OK,77,47,742,77,2014-10-01T23:30:00,0,28186091,195015
OK,77,47,742,77,2014-10-01T23:35:00,0,28186540,195015
OK,77,47,742,77,2014-10-01T23:40:00,0,28186938,195015
OK,77,47,742,77,2014-10-01T23:45:00,0,28187380,195015
OK,77,47,742,77,2014-10-01T23:50:00,0,28187829,195015
OK,77,47,742,77,2014-10-01T23:55:00,0,28188270,195015
OK,77,47,742,77,2014-10-02T00:00:00,0,28188706,195015
OK,77,47,742,77,2014-10-02T00:10:00,0,28189155,195015
OK,77,47,742,77,2014-10-02T00:15:00,0,28189604,195015
OK,77,47,742,77,2014-10-02T00:20:00,0,28190026,195015
OK,77,47,742,77,2014-10-02T00:30:00,0,28190828,195015
OK,77,47,742,77,2014-10-02T00:35:00,0,28191277,195015
OK,77,47,742,77,2014-10-02T00:45:00,0,28192032,195015
OK,77,47,742,77,2014-10-02T00:50:00,0,28192481,195015
OK,77,47,742,77,2014-10-02T00:55:00,0,28192914,195015
OK,77,47,742,77,2014-10-02T01:05:00,0,28193725,195015
OK,77,47,742,77,2014-10-02T01:10:00,0,28194174,195015
OK,77,47,742,77,2014-10-02T01:15:00,0,28194623,195015
OK,77,47,742,77,2014-10-02T01:25:00,0,28195308,195015
OK,77,47,742,77,2014-10-02T01:30:00,0,28195757,195015
OK,77,47,742,77,2014-10-02T01:35:00,0,28196206,195015
OK,77,47,742,77,2014-10-02T01:40:00,0,28196490,195015
OK,77,47,742,77,2014-10-02T01:45:00,0,28196939,195015
OK,77,47,742,77,2014-10-02T01:50:00,0,28197362,195015
OK,77,47,742,77,2014-10-02T01:55:00,0,28197811,195015
OK,77,47,742,77,2014-10-02T02:00:00,0,28198259,195015
OK,77,47,742,77,2014-10-02T02:05:00,0,28198707,195015
OK,77,47,742,77,2014-10-02T02:10:00,0,28199156,195015
OK,77,47,742,77,2014-10-02T02:15:00,0,28199528,195015
OK,77,47,742,77,2014-10-02T02:20:00,0,28199970,195015
OK,77,47,742,77,2014-10-02T02:25:00,0,28200412,195015
OK,77,47,742,77,2014-10-02T02:30:00,0,28200855,195015
OK,77,47,742,77,2014-10-02T02:45:00,0,28201735,195015
OK,77,47,742,77,2014-10-02T02:50:00,0,28202184,195015
OK,77,47,742,77,2014-10-02T02:55:00,0,28202633,195015
OK,77,47,742,77,2014-10-02T03:00:00,0,28203075,195015
OK,77,47,742,77,2014-10-02T03:05:00,0,28203523,195015
OK,77,47,742,77,2014-10-02T03:10:00,0,28203958,195015
OK,88,41,742,88,2014-10-02T03:25:00,0,28204407,195015
OK,56,65,742,56,2014-10-02T03:35:00,1,28204856,195015
OK,56,65,742,56,2014-10-02T03:40:00,0,28205305,195015
OK,78,46,742,78,2014-10-02T03:45:00,2,28205733,195015
OK,78,46,742,78,2014-10-02T03:55:00,0,28206563,195015
OK,66,55,742,66,2014-10-02T04:00:00,2,28207012,195015
OK,63,58,742,63,2014-10-02T04:05:00,0,28207461,195015
OK,68,53,742,68,2014-10-02T04:10:00,1,28207880,195015
OK,68,53,742,68,2014-10-02T04:15:00,0,28208329,195015
OK,68,53,742,68,2014-10-02T04:20:00,0,28208756,195015
OK,68,53,742,68,2014-10-02T04:25:00,0,28209205,195015
OK,85,43,742,85,2014-10-02T04:30:00,1,28209643,195015
OK,85,43,742,85,2014-10-02T04:35:00,1,28210092,195015
OK,83,44,742,83,2014-10-02T04:40:00,5,28210515,195015
OK,77,47,742,77,2014-10-02T04:45:00,0,28210964,195015
OK,77,47,742,77,2014-10-02T04:50:00,0,28211389,195015
OK,70,52,742,70,2014-10-02T05:00:00,0,28212211,195015
OK,78,46,742,78,2014-10-02T05:05:00,4,28212660,195015
OK,65,56,742,65,2014-10-02T05:10:00,1,28213089,195015
OK,70,52,742,70,2014-10-02T05:15:00,0,28213538,195015
OK,70,52,742,70,2014-10-02T05:20:00,0,28213976,195015
OK,73,50,742,73,2014-10-02T05:25:00,5,28214425,195015
OK,73,50,742,73,2014-10-02T05:30:00,0,28214838,195015
OK,73,50,742,73,2014-10-02T05:35:00,0,28215287,195015
OK,75,48,742,75,2014-10-02T05:40:00,3,28215703,195015
OK,81,45,742,81,2014-10-02T05:45:00,2,28216152,195015
OK,81,45,742,81,2014-10-02T05:50:00,0,28216491,195015
OK,78,46,742,78,2014-10-02T05:55:00,8,28216931,195015
OK,94,38,742,94,2014-10-02T06:00:00,4,28217378,195015
OK,94,38,742,94,2014-10-02T06:05:00,4,28217827,195015
OK,65,56,742,65,2014-10-02T06:10:00,1,28218266,195015
OK,62,59,742,62,2014-10-02T06:15:00,1,28218715,195015
OK,73,50,742,73,2014-10-02T06:20:00,5,28219135,195015
OK,75,48,742,75,2014-10-02T06:30:00,6,28219957,195015
OK,84,43,742,84,2014-10-02T06:35:00,4,28220406,195015
OK,72,50,742,72,2014-10-02T06:40:00,0,28220840,195015
OK,70,52,742,70,2014-10-02T06:45:00,2,28221289,195015
OK,77,47,742,77,2014-10-02T07:00:00,6,28221956,195015
OK,83,44,742,83,2014-10-02T07:05:00,7,28222101,195015
OK,90,40,742,90,2014-10-02T07:10:00,3,28222550,195015
OK,90,40,742,90,2014-10-02T07:15:00,0,28222999,195015
OK,90,40,742,90,2014-10-02T07:20:00,0,28223430,195015
OK,66,55,742,66,2014-10-02T07:25:00,1,28223865,195015
OK,66,55,742,66,2014-10-02T07:35:00,0,28224668,195015
OK,76,48,742,76,2014-10-02T07:40:00,1,28225117,195015
OK,77,47,742,77,2014-10-02T07:50:00,1,28225888,195015
OK,76,48,742,76,2014-10-02T07:55:00,3,28226337,195015
OK,76,48,742,76,2014-10-02T08:00:00,1,28226778,195015
OK,62,59,742,62,2014-10-02T08:05:00,0,28227227,195015
OK,62,59,742,62,2014-10-02T08:10:00,0,28227642,195015
OK,72,50,742,72,2014-10-02T08:20:00,0,28228450,195015
OK,70,52,742,70,2014-10-02T08:25:00,4,28228899,195015
OK,74,49,742,74,2014-10-02T08:30:00,0,28229309,195015
OK,81,45,742,81,2014-10-02T08:40:00,0,28230108,195015
OK,61,60,742,61,2014-10-02T08:50:00,2,28230923,195015
OK,55,66,742,55,2014-10-02T08:55:00,0,28231370,195015
OK,70,52,742,70,2014-10-02T09:00:00,5,28231795,195015
OK,65,56,742,65,2014-10-02T09:15:00,2,28232586,195015
OK,57,64,742,57,2014-10-02T09:20:00,0,28233035,195015
OK,82,44,742,82,2014-10-02T09:25:00,5,28233484,195015
OK,76,48,742,76,2014-10-02T09:30:00,2,28233908,195015
OK,69,53,742,69,2014-10-02T09:40:00,0,28234690,195015
OK,74,49,742,74,2014-10-02T09:45:00,5,28235139,195015
OK,76,48,742,76,2014-10-02T09:50:00,1,28235566,195015
OK,75,48,742,75,2014-10-02T09:55:00,1,28236015,195015
OK,75,48,742,75,2014-10-02T10:00:00,0,28236458,195015
OK,72,50,742,72,2014-10-02T10:10:00,3,28237307,195015
OK,79,46,742,79,2014-10-02T10:15:00,2,28237755,195015
OK,63,58,742,63,2014-10-02T10:20:00,3,28238204,195015
OK,60,61,742,60,2014-10-02T10:25:00,1,28238651,195015
OK,60,61,742,60,2014-10-02T10:30:00,0,28239092,195015
OK,72,50,742,72,2014-10-02T10:35:00,0,28239541,195015
OK,80,45,742,80,2014-10-02T10:40:00,3,28239971,195015
OK,60,61,742,60,2014-10-02T10:45:00,2,28240420,195015
OK,63,58,742,63,2014-10-02T10:50:00,1,28240864,195015
OK,71,51,742,71,2014-10-02T10:55:00,1,28241313,195015
OK,71,51,742,71,2014-10-02T11:00:00,1,28241745,195015
OK,60,61,742,60,2014-10-02T11:10:00,3,28242589,195015
OK,84,43,742,84,2014-10-02T11:15:00,1,28243038,195015
OK,65,56,742,65,2014-10-02T11:20:00,2,28243487,195015
OK,62,59,742,62,2014-10-02T11:25:00,1,28243812,195015
OK,62,59,742,62,2014-10-02T11:30:00,0,28244250,195015
OK,77,47,742,77,2014-10-02T11:35:00,2,28244679,195015
OK,77,47,742,77,2014-10-02T11:40:00,0,28245128,195015
OK,77,47,742,77,2014-10-02T11:45:00,0,28245577,195015
OK,73,50,742,73,2014-10-02T11:50:00,4,28245983,195015
OK,72,50,742,72,2014-10-02T11:55:00,6,28246432,195015
OK,66,55,742,66,2014-10-02T12:00:00,5,28246869,195015
OK,63,58,742,63,2014-10-02T12:05:00,2,28247317,195015
OK,60,61,742,60,2014-10-02T12:10:00,0,28247764,195015
OK,69,53,742,69,2014-10-02T12:15:00,2,28248194,195015
OK,73,50,742,73,2014-10-02T12:20:00,1,28248643,195015
OK,75,48,742,75,2014-10-02T12:25:00,5,28249090,195015
OK,77,47,742,77,2014-10-02T12:30:00,1,28249518,195015
OK,75,48,742,75,2014-10-02T12:35:00,4,28250334,195015
OK,73,50,742,73,2014-10-02T12:45:00,7,28251110,195015
OK,76,48,742,76,2014-10-02T13:20:00,7,28251655,195015
OK,71,51,742,71,2014-10-02T13:30:00,1,28252103,195015
OK,71,51,742,71,2014-10-02T13:35:00,0,28252688,195015
OK,71,51,742,71,2014-10-02T13:40:00,0,28253100,195015
OK,76,48,742,76,2014-10-02T13:50:00,2,28253547,195015
OK,94,38,742,94,2014-10-02T13:55:00,5,28254273,195015
OK,102,35,742,102,2014-10-02T14:10:00,4,28254850,195015
OK,67,54,742,67,2014-10-02T14:20:00,4,28255299,195015
OK,80,45,742,80,2014-10-02T14:30:00,6,28256176,195015
OK,81,45,742,81,2014-10-02T14:40:00,3,28257053,195015
OK,78,46,742,78,2014-10-02T14:45:00,9,28257502,195015
OK,75,48,742,75,2014-10-02T14:50:00,2,28257943,195015
OK,73,50,742,73,2014-10-02T14:55:00,2,28258823,195015
OK,61,60,742,61,2014-10-02T15:05:00,1,28259270,195015
OK,53,69,742,53,2014-10-02T15:10:00,1,28259718,195015
OK,74,49,742,74,2014-10-02T15:15:00,4,28260599,195015
OK,73,50,742,73,2014-10-02T15:20:00,1,28261042,195015
OK,67,54,742,67,2014-10-02T15:25:00,3,28261422,195015
OK,67,54,742,67,2014-10-02T15:30:00,3,28261851,195015
OK,74,49,742,74,2014-10-02T15:35:00,2,28262300,195015
OK,80,45,742,80,2014-10-02T15:40:00,1,28262747,195015
OK,81,45,742,81,2014-10-02T15:45:00,1,28263188,195015
OK,81,45,742,81,2014-10-02T15:50:00,0,28263623,195015
OK,81,45,742,81,2014-10-02T15:55:00,0,28264025,195015
OK,81,45,742,81,2014-10-02T16:00:00,0,28264474,195015
OK,72,50,742,72,2014-10-02T16:05:00,6,28264920,195015
OK,66,55,742,66,2014-10-02T16:10:00,9,28265358,195015
OK,65,56,742,65,2014-10-02T16:15:00,6,28265748,195015
OK,66,55,742,66,2014-10-02T16:20:00,1,28266197,195015
OK,69,53,742,69,2014-10-02T16:30:00,2,28266646,195015
OK,66,55,742,66,2014-10-02T16:35:00,0,28267418,195015
OK,78,46,742,78,2014-10-02T16:45:00,2,28267867,195015
OK,69,53,742,69,2014-10-02T16:55:00,0,28268758,195015
OK,80,45,742,80,2014-10-02T17:00:00,1,28269207,195015
OK,76,48,742,76,2014-10-02T17:05:00,2,28270091,195015
OK,73,50,742,73,2014-10-02T17:10:00,1,28270533,195015
OK,67,54,742,67,2014-10-02T17:20:00,1,28270974,195015
OK,67,54,742,67,2014-10-02T17:30:00,0,28271852,195015
OK,67,54,742,67,2014-10-02T17:35:00,0,28272299,195015
OK,68,53,742,68,2014-10-02T17:45:00,0,28273178,195015
OK,68,53,742,68,2014-10-02T17:50:00,0,28273626,195015
OK,66,55,742,66,2014-10-02T17:55:00,1,28274072,195015
OK,66,55,742,66,2014-10-02T18:00:00,0,28274521,195015
OK,66,55,742,66,2014-10-02T18:05:00,0,28274850,195015
OK,66,55,742,66,2014-10-02T18:10:00,0,28275730,195015
OK,66,55,742,66,2014-10-02T18:15:00,0,28276177,195015
OK,66,55,742,66,2014-10-02T18:20:00,0,28276572,195015
OK,69,53,742,69,2014-10-02T18:35:00,0,28277021,195015
OK,69,53,742,69,2014-10-02T18:40:00,0,28277470,195015
OK,69,53,742,69,2014-10-02T18:45:00,0,28277919,195015
OK,69,53,742,69,2014-10-02T19:00:00,0,28278716,195015
OK,66,55,742,66,2014-10-02T19:10:00,0,28279165,195015
OK,70,52,742,70,2014-10-02T19:15:00,1,28280054,195015
OK,70,52,742,70,2014-10-02T19:20:00,0,28280499,195015
OK,70,52,742,70,2014-10-02T19:25:00,0,28280903,195015
OK,70,52,742,70,2014-10-02T19:35:00,0,28281800,195015
OK,70,52,742,70,2014-10-02T19:40:00,0,28282235,195015
OK,70,52,742,70,2014-10-02T19:45:00,0,28282680,195015
OK,70,52,742,70,2014-10-02T19:55:00,0,28283128,195015
OK,70,52,742,70,2014-10-02T20:00:00,0,28283927,195015
OK,70,52,742,70,2014-10-02T20:10:00,0,28284376,195015
OK,70,52,742,70,2014-10-02T20:15:00,0,28285159,195015
OK,70,52,742,70,2014-10-02T20:20:00,0,28285595,195015
OK,70,52,742,70,2014-10-02T20:25:00,0,28286010,195015
OK,70,52,742,70,2014-10-02T20:35:00,0,28286862,195015